When you browse on this site, cookies collect data to enhance your experience and personalize the content and advertising you see.
Visit our Privacy Policy to learn more. By continuing to use the site, you agree to this use of cookies and data.
  • In Hungary
  • List of Countries
  • For 7 days
  • Water Temperature
  • Satellite Maps
  • Weather Map
  • News
  • Weather Widgets
  • user-avatar
    Login

    Hourly Weather Halle

    Today, 22 January, Tuesday

    Time Temperature Precipitation Wind Pressure Humidity
    00:00 -4°C° 0 mm 4 mps 757 mmHg 56%
    01:00 -4°C° 0 mm 4 mps 756 mmHg 55%
    02:00 -5°C° 0 mm 5 mps 755 mmHg 54%
    03:00 -5°C° 0 mm 5 mps 754 mmHg 54%
    04:00 -5°C° 0 mm 6 mps 753 mmHg 53%
    05:00 -4°C° 0 mm 6 mps 752 mmHg 52%
    06:00 -4°C° 0 mm 7 mps 751 mmHg 52%
    07:00 -4°C° 0.1 mm 7 mps 751 mmHg 54%
    08:00 -4°C° 0.1 mm 7 mps 750 mmHg 56%
    09:00 -4°C° 0.1 mm 7 mps 749 mmHg 59%
    10:00 -4°C° 0.6 mm 7 mps 749 mmHg 69%
    11:00 -4°C° 0.6 mm 7 mps 748 mmHg 79%
    12:00 -4°C° 0.6 mm 7 mps 748 mmHg 88%
    13:00 -4°C° 0.4 mm 6 mps 747 mmHg 89%
    14:00 -4°C° 0.4 mm 5 mps 747 mmHg 89%
    15:00 -2°C° 0.4 mm 5 mps 747 mmHg 89%
    16:00 -2°C° 0 mm 4 mps 746 mmHg 91%
    17:00 -3°C° 0 mm 4 mps 746 mmHg 92%
    18:00 -3°C° 0 mm 4 mps 746 mmHg 94%
    19:00 -2°C° 0 mm 3 mps 745 mmHg 94%
    20:00 -2°C° 0 mm 3 mps 745 mmHg 95%
    21:00 -4°C° 0 mm 3 mps 745 mmHg 96%
    22:00 -2°C° 0 mm 3 mps 744 mmHg 96%
    23:00 -2°C° 0 mm 3 mps 744 mmHg 95%

    Tomorrow, 23 January, Wednesday

    Time Temperature Precipitation Wind Pressure Humidity
    00:00 -2°C° 0 mm 3 mps 744 mmHg 95%
    01:00 -2°C° 0 mm 3 mps 743 mmHg 94%
    02:00 -2°C° 0 mm 3 mps 743 mmHg 94%
    03:00 -2°C° 0 mm 3 mps 742 mmHg 93%
    04:00 -2°C° 0.2 mm 3 mps 742 mmHg 93%
    05:00 -2°C° 0.2 mm 3 mps 742 mmHg 93%
    06:00 -2°C° 0.2 mm 3 mps 742 mmHg 93%
    07:00 -2°C° 0.1 mm 3 mps 742 mmHg 92%
    08:00 -2°C° 0.1 mm 3 mps 742 mmHg 91%
    09:00 -2°C° 0.1 mm 3 mps 743 mmHg 90%
    10:00 -2°C° 0 mm 3 mps 743 mmHg 88%
    11:00 -1°C° 0 mm 3 mps 744 mmHg 87%
    12:00 -2°C° 0 mm 4 mps 744 mmHg 85%
    13:00 -2°C° 0 mm 4 mps 745 mmHg 87%
    14:00 -2°C° 0 mm 4 mps 745 mmHg 89%
    15:00 -1°C° 0 mm 3 mps 746 mmHg 90%
    16:00 -1°C° 0 mm 3 mps 746 mmHg 91%
    17:00 -1°C° 0 mm 3 mps 747 mmHg 91%
    18:00 -2°C° 0 mm 3 mps 748 mmHg 92%
    19:00 -2°C° 0 mm 3 mps 749 mmHg 92%
    20:00 -2°C° 0 mm 3 mps 750 mmHg 92%
    21:00 -2°C° 0 mm 3 mps 750 mmHg 92%
    22:00 -2°C° 0 mm 3 mps 751 mmHg 92%
    23:00 -2°C° 0 mm 2 mps 751 mmHg 92%

    Day after tomorrow, 24 January, Thursday

    Time Temperature Precipitation Wind Pressure Humidity
    00:00 -2°C° 0 mm 2 mps 751 mmHg 93%
    01:00 -2°C° 0 mm 2 mps 752 mmHg 93%
    02:00 -2°C° 0 mm 2 mps 752 mmHg 93%
    03:00 -2°C° 0 mm 2 mps 753 mmHg 93%
    04:00 0°C° 0 mm 1 mps 753 mmHg 92%
    05:00 +1°C° 0 mm 1 mps 753 mmHg 92%
    06:00 +1°C° 0 mm 1 mps 754 mmHg 91%
    07:00 +1°C° 0 mm 1 mps 754 mmHg 92%
    08:00 +1°C° 0 mm 1 mps 755 mmHg 92%
    09:00 +1°C° 0 mm 1 mps 755 mmHg 92%
    10:00 +2°C° 0 mm 1 mps 755 mmHg 91%
    11:00 +2°C° 0 mm 1 mps 756 mmHg 90%
    12:00 +3°C° 0 mm 1 mps 756 mmHg 90%
    13:00 +3°C° 0 mm 1 mps 756 mmHg 91%
    14:00 +2°C° 0 mm 2 mps 756 mmHg 93%
    15:00 +2°C° 0 mm 2 mps 756 mmHg 94%
    16:00 +1°C° 0 mm 2 mps 757 mmHg 93%
    17:00 -1°C° 0 mm 2 mps 757 mmHg 92%
    18:00 -1°C° 0 mm 2 mps 757 mmHg 91%
    19:00 -1°C° 0 mm 2 mps 758 mmHg 91%
    20:00 -1°C° 0 mm 2 mps 758 mmHg 91%
    21:00 -2°C° 0 mm 2 mps 758 mmHg 90%
    22:00 -2°C° 0 mm 2 mps 758 mmHg 91%
    23:00 -2°C° 0 mm 2 mps 758 mmHg 91%

    25 January, Friday

    Time Temperature Precipitation Wind Pressure Humidity
    00:00 -2°C° 0 mm 2 mps 758 mmHg 92%
    01:00 -2°C° 0 mm 2 mps 758 mmHg 92%
    02:00 -2°C° 0 mm 2 mps 758 mmHg 92%
    03:00 -2°C° 0 mm 2 mps 758 mmHg 92%
    04:00 -2°C° 0 mm 2 mps 758 mmHg 92%
    05:00 -2°C° 0 mm 3 mps 758 mmHg 91%
    06:00 -2°C° 0 mm 3 mps 758 mmHg 91%
    07:00 -2°C° 0 mm 3 mps 758 mmHg 90%
    08:00 -1°C° 0 mm 3 mps 758 mmHg 89%
    09:00 0°C° 0 mm 3 mps 758 mmHg 87%
    10:00 -1°C° 0 mm 4 mps 758 mmHg 87%
    11:00 0°C° 0 mm 4 mps 758 mmHg 86%
    12:00 0°C° 0 mm 4 mps 757 mmHg 86%
    13:00 0°C° 0 mm 4 mps 757 mmHg 86%
    14:00 0°C° 0 mm 4 mps 757 mmHg 87%
    15:00 0°C° 0 mm 4 mps 756 mmHg 87%
    16:00 0°C° 0.1 mm 5 mps 756 mmHg 89%
    17:00 0°C° 0.1 mm 5 mps 756 mmHg 91%
    18:00 -1°C° 0.1 mm 5 mps 756 mmHg 93%
    19:00 -1°C° 0.2 mm 5 mps 756 mmHg 93%
    20:00 -1°C° 0.2 mm 5 mps 755 mmHg 93%
    21:00 0°C° 0.2 mm 5 mps 755 mmHg 93%
    22:00 0°C° 0.1 mm 5 mps 755 mmHg 93%
    23:00 0°C° 0.1 mm 5 mps 754 mmHg 93%

    26 January, Saturday

    Time Temperature Precipitation Wind Pressure Humidity
    00:00 -1°C° 0.1 mm 6 mps 753 mmHg 93%
    01:00 -1°C° 0 mm 6 mps 753 mmHg 93%
    02:00 -1°C° 0 mm 6 mps 752 mmHg 93%
    03:00 -1°C° 0 mm 6 mps 751 mmHg 94%
    04:00 +1°C° 0.2 mm 6 mps 750 mmHg 93%
    05:00 +1°C° 0.2 mm 6 mps 749 mmHg 93%
    06:00 +2°C° 0.2 mm 7 mps 748 mmHg 93%
    07:00 +2°C° 1.3 mm 7 mps 747 mmHg 92%
    08:00 +2°C° 1.3 mm 7 mps 747 mmHg 92%
    09:00 +1°C° 1.3 mm 8 mps 746 mmHg 92%
    10:00 +2°C° 0.6 mm 7 mps 745 mmHg 91%
    11:00 +2°C° 0.6 mm 7 mps 745 mmHg 91%
    12:00 +2°C° 0.6 mm 7 mps 744 mmHg 91%
    13:00 +2°C° 1.8 mm 6 mps 743 mmHg 91%
    14:00 +2°C° 1.8 mm 5 mps 743 mmHg 92%
    15:00 +3°C° 1.8 mm 4 mps 742 mmHg 93%
    16:00 +3°C° 1.9 mm 4 mps 742 mmHg 94%
    17:00 +2°C° 1.9 mm 3 mps 742 mmHg 95%
    18:00 +3°C° 1.9 mm 2 mps 743 mmHg 96%
    19:00 +1°C° 1.3 mm 4 mps 743 mmHg 93%
    20:00 +1°C° 1.3 mm 5 mps 743 mmHg 90%
    21:00 +2°C° 1.3 mm 7 mps 744 mmHg 87%
    22:00 +2°C° 1 mm 7 mps 744 mmHg 87%
    23:00 +2°C° 1 mm 6 mps 744 mmHg 86%

    27 January, Sunday

    Time Temperature Precipitation Wind Pressure Humidity
    00:00 +2°C° 1 mm 6 mps 745 mmHg 86%
    01:00 +1°C° 0.6 mm 6 mps 745 mmHg 85%
    02:00 +1°C° 0.6 mm 5 mps 745 mmHg 85%
    03:00 +1°C° 0.6 mm 4 mps 745 mmHg 84%
    04:00 +1°C° 0.2 mm 4 mps 746 mmHg 86%
    05:00 +2°C° 0.2 mm 3 mps 746 mmHg 88%
    06:00 +2°C° 0.2 mm 3 mps 747 mmHg 90%
    07:00 +2°C° 0.1 mm 3 mps 747 mmHg 89%
    08:00 +1°C° 0.1 mm 4 mps 748 mmHg 87%
    09:00 +1°C° 0.1 mm 4 mps 748 mmHg 86%
    10:00 +3°C° 0.1 mm 4 mps 749 mmHg 81%
    11:00 +3°C° 0.1 mm 5 mps 749 mmHg 76%
    12:00 +5°C° 0.1 mm 5 mps 749 mmHg 71%
    13:00 +3°C° 0.1 mm 5 mps 749 mmHg 71%
    14:00 +3°C° 0.1 mm 5 mps 750 mmHg 71%
    15:00 +4°C° 0.1 mm 4 mps 750 mmHg 71%
    16:00 +3°C° 0 mm 4 mps 750 mmHg 74%
    17:00 +2°C° 0 mm 3 mps 751 mmHg 77%
    18:00 +1°C° 0 mm 3 mps 751 mmHg 80%
    19:00 +1°C° 0 mm 2 mps 751 mmHg 80%
    20:00 +1°C° 0 mm 2 mps 752 mmHg 81%
    21:00 -1°C° 0 mm 2 mps 752 mmHg 81%
    22:00 -1°C° 0 mm 2 mps 752 mmHg 82%
    23:00 -1°C° 0 mm 2 mps 753 mmHg 83%
    Show more